Regional Weather Roundup
Issued by NWS

Home | Current Version | Previous Version | Graphics & Text | Print | Product List | Glossary On
Versions: 1 2 3 4 5 6 7 8 9 10 11 12 13 14 15 16 17 18 19 20 21 22 23 24 25 26 27 28 29 30 31 32 33 34 35 36 37 38 39 40 41 42 43 44 45 46 47 48 49 50
590
ASUS43 KIND 041559
RWRIN

WEATHER ROUNDUP FOR INDIANA
NATIONAL WEATHER SERVICE INDIANAPOLIS IN
1200 PM EDT WED MAY 04 2016

NOTE: "FAIR" INDICATES FEW OR NO CLOUDS BELOW 12,000 FEET WITH NO
SIGNIFICANT WEATHER AND/OR OBSTRUCTIONS TO VISIBILITY.

* - STATION DOES NOT REPORT WEATHER SUCH AS PRECIPITATION OR FOG.

+ - STATION NOT QUALITY CONTROLLED BY THE NATIONAL WEATHER SERVICE.
    USE DATA WITH CAUTION...ESPECIALLY DEWPOINT AND RELATIVE
    HUMIDITY OBSERVATIONS.

INZ001>003-010>013-019-020-041700-
NORTHWEST INDIANA

CITY           SKY/WX    TMP DP  RH WIND       PRES   REMARKS
RENSSELAER +   PTSUNNY   48  43  81 N16G23    29.74R

$$

LMZ046-743>745-041700-
SOUTHERN LAKE MICHIGAN

STATION/POSITION TIME  TEMP    WIND        PRES    WAVE
                       AIR SEA DIR/SP/G            HT
                 (UTC) (F)     (DEG/KT/KT) (MB)    (FT)
BURNS HARBOR     1505   44     350/ 24     1007.5R
MICHIGAN CITY    1500   43     320/ 28/ 30   N/A

$$

INZ004-005-014>016-021>024-041700-
NORTH CENTRAL INDIANA

CITY           SKY/WX    TMP DP  RH WIND       PRES   REMARKS
ELKHART        CLOUDY    45  43  93 NW16G24   29.66R
GOSHEN         CLOUDY    47  42  83 NW16G24   29.64R
PERU/GRISSOM   CLOUDY    49  44  84 NW16G24   29.68R
SOUTH BEND     CLOUDY    43  39  86 NW23G31   29.69R

$$

INZ006>009-017-018-025>027-041700-
NORTHEAST INDIANA

CITY           SKY/WX    TMP DP  RH WIND       PRES   REMARKS
ANGOLA *+      CLOUDY    48  45  87 NW14G22   29.59R
FORT WAYNE     CLOUDY    49  43  80 NW17      29.62R

$$

INZ028-029-035-036-043>045-051>053-041700-
WEST CENTRAL INDIANA

CITY           SKY/WX    TMP DP  RH WIND       PRES   REMARKS
CRAWFORDSVL +  CLOUDY    50  45  83 NW16G22   29.72R
GREENCASTLE +  LGT RAIN  50  46  87 N14G20    29.72R
LAFAYETTE      PTSUNNY   51  42  71 N16G26    29.73R
TERRE HAUTE    PTSUNNY   58  47  66 N15       29.72R

$$

INZ030>032-037>040-046>048-054>057-064-065-041700-
CENTRAL INDIANA

CITY           SKY/WX    TMP DP  RH WIND       PRES   REMARKS
COLUMBUS       PTSUNNY   50  50 100 W7        29.70R
INDIANAPOLIS   PTSUNNY   54  47  77 NW14      29.68R
-EAGLE CREEK   CLOUDY    54  46  74 NW13G22   29.68S
KOKOMO *+      PTSUNNY   52  43  71 NW24      29.68R
SHELBYVILLE    LGT RAIN  52  46  80 NW12      29.68R

$$

INZ033-034-041-042-049-050-058-059-041700-
EAST CENTRAL INDIANA

CITY           SKY/WX    TMP DP  RH WIND       PRES   REMARKS
MUNCIE         CLOUDY    53  45  74 NW13      29.65S

$$

INZ060-061-067>069-081>083-085>088-041700-
SOUTHWEST INDIANA

CITY           SKY/WX    TMP DP  RH WIND       PRES   REMARKS
EVANSVILLE     PTSUNNY   58  50  75 W10       29.73R
HUNTINGBURG *+ CLOUDY    54  50  87 SW10G16   29.72S

$$

INZ062-063-066-070>080-084-089>092-041700-
SOUTH CENTRAL AND SOUTHEAST INDIANA

CITY           SKY/WX    TMP DP  RH WIND       PRES   REMARKS
BLOOMINGTON    PTSUNNY   55  50  83 W9        29.70S
SEYMOUR +      DRIZZLE   52  50  93 W8        29.70R

$$





USA.gov is the U.S. government's official web portal to all federal, state and local government web resources and services.